This is the latest recevied weather packets stored in our database for station/object N9OJR. If no packets are shown the sender has not sent any weather packets the latest 10 day(s).
| Time | Temp. | Humidity | Pressure | Rain* | Wind** | Luminosity | Snow |
|---|---|---|---|---|---|---|---|
| 1777911662 | 20° C | 58% | 1004 hPa | 0 mm | - | 706 W/m² | - |
| 1777911357 | 19.44° C | 56% | 1004.7 hPa | 0 mm | - | 744 W/m² | - |
| 1777911055 | 19.44° C | 58% | 1004.5 hPa | 0 mm | - | 777 W/m² | - |
| 1777910753 | 19.44° C | 56% | 1004.6 hPa | 0 mm | - | 796 W/m² | - |
| 1777910449 | 19.44° C | 58% | 1004.8 hPa | 0 mm | - | 806 W/m² | - |
| 1777910146 | 19.44° C | 58% | 1004.7 hPa | 0 mm | - | 813 W/m² | - |
| 1777909844 | 18.33° C | 58% | 1004.9 hPa | 0 mm | - | 784 W/m² | - |
| 1777909540 | 18.89° C | 59% | 1004.5 hPa | 0 mm | - | 819 W/m² | - |
| 1777909237 | 18.89° C | 58% | 1004.6 hPa | 0 mm | - | 813 W/m² | - |
| 1777908935 | 18.89° C | 57% | 1004.8 hPa | 0 mm | - | 873 W/m² | - |
| 1777908633 | 18.89° C | 57% | 1004.7 hPa | 0 mm | - | 881 W/m² | - |
| 1777908329 | 18.89° C | 58% | 1005 hPa | 0 mm | - | 868 W/m² | - |
| 1777908020 | 18.33° C | 58% | 1004.9 hPa | 0 mm | - | 785 W/m² | - |
| 1777907716 | 18.33° C | 59% | 1005.1 hPa | 0 mm | - | 820 W/m² | - |
| 1777907411 | 18.33° C | 58% | 1005 hPa | 0 mm | - | 822 W/m² | - |
| 1777907108 | 18.89° C | 59% | 1005.1 hPa | 0 mm | - | 806 W/m² | - |
| 1777906806 | 18.89° C | 59% | 1004.8 hPa | 0 mm | - | 808 W/m² | - |
| 1777906503 | 17.78° C | 59% | 1004.9 hPa | 0 mm | - | 790 W/m² | - |
| 1777906198 | 17.22° C | 61% | 1005 hPa | 0 mm | - | 786 W/m² | - |
| 1777905895 | 17.22° C | 60% | 1005 hPa | 0 mm | - | 757 W/m² | - |
| 1777905592 | 17.22° C | 58% | 1005.1 hPa | 0 mm | - | 702 W/m² | - |
| 1777905289 | 17.22° C | 60% | 1005 hPa | 0 mm | - | 754 W/m² | - |
| 1777904986 | 16.67° C | 61% | 1005 hPa | 0 mm | - | 740 W/m² | - |
| 1777904684 | 16.67° C | 61% | 1005.2 hPa | 0 mm | - | 698 W/m² | - |
| 1777904380 | 16.67° C | 60% | 1005.3 hPa | 0 mm | - | 714 W/m² | - |
* Rain latest hour (hover to see other rain measurements)
** Current wind speed in m/s (hover to see current wind gust speed)